Location: Unspecified
(22.6800°N, 112.2000°E)
Time: 11:41:18
(UTC+08:00)

S-56A Canister/Altair - Pass Details

Date: 25 July 2021
Orbit: 632 x 2500 km, 38.9° (Epoch: 21 September)

Event Time Altitude Azimuth Distance (km) Brightness Sun altitude
Rises 02:03:52 0° 288° (WNW) 4,689 - -42.7°
Reaches altitude 10° 02:08:32 10° 272° (W) 3,310 - -42.2°
Maximum altitude 02:13:30 18° 233° (SW) 2,347 - -41.6°
Drops below altitude 10° 02:17:30 10° 191° (S) 2,557 - -41.1°
Sets 02:20:31 0° 171° (S) 3,272 - -40.8°
